sat.trackr.live / text

‹ back to catalog

STARLINK-30571

NORAD 58066 · 2023-158R

PAYLOAD ACTIVE UNKNOWN

§ Identity

Operator
Country
US
Launch date
2023-10-13
Launch site
AFETR
Launch vehicle
Mass (kg)
RCS (m²)

Purposes: comms

External: N2YO · Heavens-Above · Gunter

§ Orbital elements

Epoch: 2026-05-25T03:59:08.750400Z

Period
94.27 min
Inclination
43.0019°
Eccentricity
0.0001181
Mean motion
15.27588899 rev/d
Perigee alt
482.2 km
Apogee alt
483.8 km
Semi-major
6,861.2 km
B*
2.0195e-4
RAAN
315.3515°
Arg perigee
282.9357°
Mean anomaly
77.1363°
Rev number
14,526

§ Raw data

STARLINK-305711 58066U 23158R   26145.16607350  .00005301  00000+0  20195-3 0  99982 58066  43.0019 315.3515 0001181 282.9357  77.1363 15.27588899145261

JSON: /api/v1/satellites/58066 · /tle

For live sub-satellite position, see the globe view (requires WebGL).

§ Visibility from observer

Set your observer location to see the next 7 days of passes ≥ 10°. The values pass through the URL so the page stays shareable.

No JS? Fill the form by hand. The geolocation button needs JavaScript.